Weather observations for the past three days for
Pago Pago, AS, Samoa
| Date | Time (sst) | Wind (kph) | Vis. (km) | Weather | Sky Cond. | Temperature (ºC) | Relative Humidity | Wind Chill (°C) | Heat Index (°C) | Pressure | Precipitation (cm) | ||||||
|---|---|---|---|---|---|---|---|---|---|---|---|---|---|---|---|---|---|
| Air | Dwpt | 6 hour | altimeter (cm) | sea level (mb) | 1 hr | 3 hr | 6 hr | ||||||||||
| Max. | Min. | ||||||||||||||||
| 04 | 14:50 | SE 13 | 1.61 | Showers Rain | BKN012TCU OVC030 | 25.7 | 24.5 | 93% | 27 | 75.62 | 1008.1 | ||||||
| 04 | 13:50 | SE 15 | 16.09 | Overcast | BKN014TCU OVC040 | 27.9 | 25.1 | 85% | 33 | 75.62 | 1008.3 | ||||||
| 04 | 12:50 | Vrbl 9 | 16.09 | Mostly Cloudy | BKN016TCU BKN040 | 28.1 | 25.7 | 29.2 | 25.6 | 87% | 33 | 75.64 | 1008.5 | 0.89 | |||
| 04 | 11:50 | SE 13 | 16.09 | Overcast | BKN OVC100 | 28.1 | 25.7 | 87% | 33 | 75.67 | 1009.0 | ||||||
| 04 | 10:50 | SE 13 | 19.31 | Mostly Cloudy | SCT018TCU BKN040 BKN100 | 29.1 | 25 | 79% | 35 | 75.74 | 1009.8 | ||||||
| 04 | 09:50 | Vrbl 7 | 19.31 | Mostly Cloudy | SCT018TCU SCT040 BKN100 | 29.2 | 25.4 | 80% | 35 | 75.77 | 1010.3 | ||||||
| 04 | 08:50 | Calm | 19.31 | Mostly Cloudy | SCT018TCU BKN040 BKN100 | 28 | 25.6 | 87% | 33 | 75.77 | 1010.3 | ||||||
| 04 | 07:50 | Vrbl 6 | 16.09 | Overcast | SCT018TCU BKN040 BKN100 OVC200 | 26.4 | 25.2 | 93% | 29 | 75.77 | 1010.2 | ||||||
| 04 | 06:50 | Vrbl 2 | 16.09 | Overcast | FEW021 SCT040 OVC100 | 25.6 | 24.5 | 26.1 | 25.5 | 94% | 27 | 75.72 | 1009.5 | ||||
| 04 | 05:50 | Vrbl 6 | 16.09 | Overcast | FEW016 SCT040 OVC100 | 25.5 | 24.4 | 94% | 27 | 75.67 | 1008.8 | ||||||
| 04 | 04:50 | Vrbl 7 | 16.09 | Overcast | FEW019 SCT040 OVC100 | 25.5 | 24.4 | 94% | 27 | 75.64 | 1008.5 | ||||||
| 04 | 03:50 | Vrbl 4 | 16.09 | Overcast | SCT019 BKN040 OVC100 | 25.5 | 24.2 | 93% | 27 | 75.64 | 1008.6 | ||||||
| 04 | 02:50 | Vrbl 4 | 16.09 | Mostly Cloudy | SCT017TCU SCT040 BKN100 | 25.5 | 24.4 | 94% | 27 | 75.69 | 1009.3 | ||||||
| 04 | 01:50 | Vrbl 4 | 16.09 | Mostly Cloudy | SCT017TCU BKN100 | 26 | 25 | 94% | 28 | 75.74 | 1009.8 | ||||||
| 04 | 00:50 | Vrbl 6 | 16.09 | Mostly Cloudy | FEW023 SCT040 BKN100 | 26 | 24.7 | 26.2 | 25 | 93% | 28 | 75.74 | 1010.0 | ||||
| 03 | 23:50 | Vrbl 4 | 16.09 | Mostly Cloudy | FEW023 BKN040 BKN100 | 26.1 | 24.5 | 91% | 28 | 75.79 | 1010.5 | ||||||
| 03 | 22:50 | Vrbl 6 | 16.09 | Overcast | FEW023 BKN040 OVC100 | 25.8 | 24.2 | 91% | 28 | 75.79 | 1010.5 | ||||||
| 03 | 21:50 | Vrbl 4 | 16.09 | Overcast | FEW023 BKN038 OVC100 | 26 | 24.3 | 90% | 28 | 75.79 | 1010.5 | ||||||
| 03 | 20:50 | Vrbl 6 | 16.09 | Mostly Cloudy | FEW023 BKN038 BKN100 | 26.1 | 24.3 | 90% | 28 | 75.77 | 1010.3 | ||||||
| 03 | 19:50 | Vrbl 6 | 16.09 | Overcast | FEW023 BKN038 OVC100 | 25.2 | 23.6 | 27.5 | 25.4 | 91% | 26 | 75.69 | 1009.1 | ||||
| 03 | 18:50 | Vrbl 6 | 16.09 | Overcast | FEW023 BKN038 OVC100 | 25.2 | 23.6 | 27.5 | 25.4 | 91% | 26 | 75.69 | 1009.1 | 0.2 | |||
| 03 | 17:50 | Vrbl 4 | 19.31 | Overcast | FEW022 BKN038 OVC100 | 26.3 | 24.6 | 90% | 29 | 75.69 | 1009.1 | ||||||
| 03 | 16:50 | Vrbl 6 | 19.31 | Overcast | FEW010 SCT022 BKN040 OVC100 | 26.6 | 24.6 | 89% | 30 | 75.64 | 1008.6 | ||||||
| 03 | 15:50 | Vrbl 4 | 16.09 | Light Showers Rain | FEW008 SCT018TCU BKN038 OVC100 | 26.2 | 24.5 | 90% | 29 | 75.67 | 1008.8 | 0.2 | |||||
| 03 | 14:50 | Vrbl 6 | 16.09 | Light Showers Rain | FEW007 BKN017TCU BKN040 OVC100 | 26.4 | 24.7 | 90% | 29 | 75.67 | 1008.8 | ||||||
| 03 | 13:50 | Vrbl 6 | 16.09 | Mostly Cloudy | FEW023 SCT040 BKN100 | 26 | 24.7 | 26.2 | 25 | 93% | 28 | 75.74 | 1010.0 | ||||
| 03 | 12:50 | Vrbl 6 | 17.70 | Overcast | SCT015TCU BKN100 OVC200 | 27 | 24.8 | 28.9 | 25.7 | 88% | 31 | 75.74 | 1010.0 | 1.12 | |||
| 03 | 10:50 | S 15 | 19.31 | Overcast | SCT018TCU BKN100 OVC200 | 28.9 | 25.5 | 82% | 35 | 75.84 | 1011.3 | ||||||
| 03 | 09:55 | Vrbl 2 | 19.31 | Overcast | FEW019 BKN100 OVC200 | 28.3 | 25.9 | 87% | 34 | 75.87 | 1011.5 | ||||||
| 03 | 08:50 | Calm | 19.31 | Overcast | FEW017 BKN100 OVC200 | 26.5 | 25.2 | 93% | 30 | 75.79 | 1010.7 | ||||||
| 03 | 07:50 | Vrbl 4 | 19.31 | Overcast | FEW018 BKN100 OVC200 | 26.1 | 25 | 94% | 28 | 75.77 | 1010.3 | ||||||
| 03 | 06:50 | Calm | 19.31 | Mostly Cloudy | FEW018 SCT100 BKN200 | 25.7 | 24.7 | 26.8 | 25 | 94% | 27 | 75.72 | 1009.5 | ||||
| 03 | 05:50 | Vrbl 4 | 16.09 | Mostly Cloudy | SCT016TCU BKN090 BKN200 | 25.2 | 24.2 | 94% | 26 | 75.67 | 1009.0 | ||||||
| 03 | 04:50 | Vrbl 2 | 16.09 | Overcast | SCT016TCU BKN090 OVC200 | 25 | 23.9 | 94% | 26 | 75.62 | 1008.3 | ||||||
| 03 | 03:50 | Vrbl 2 | 16.09 | Overcast | BKN016TCU BKN090 OVC200 | 25 | 24 | 94% | 26 | 75.64 | 1008.5 | 0.2 | |||||
| 03 | 02:55 | Vrbl 4 | 12.87 | Light Showers Rain | BKN016TCU BKN090 OVC200 | 25.8 | 24 | 90% | 28 | 75.67 | 1008.8 | ||||||
| 03 | 01:50 | Vrbl 11 | 16.09 | Mostly Cloudy | SCT019TCU BKN100 BKN200 | 26.8 | 24.1 | 85% | 30 | 75.67 | 1008.8 | ||||||
| 03 | 00:55 | Vrbl 2 | 16.09 | Mostly Cloudy | FEW021 SCT040 BKN100 BKN200 | 26.6 | 24.6 | 27.4 | 26.6 | 89% | 30 | 75.67 | 1009.3 | ||||
| 02 | 16:51 | Vrbl 7 | 19.31 | Partly Cloudy | FEW020TCU FEW040 SCT100 SCT220 | 29.2 | 24.5 | 76% | 34 | 75.54 | 1007.1 | ||||||
| 02 | 15:50 | E 11 | 19.31 | Mostly Cloudy | SCT020TCU SCT100 BKN220 | 30 | 25.1 | 75% | 36 | 75.54 | 1007.1 | ||||||
| 02 | 14:50 | Vrbl 11 | 19.31 | Mostly Cloudy | FEW020 SCT040 BKN100 | 30.7 | 24.6 | 70% | 37 | 75.54 | 1007.3 | ||||||
| 02 | 13:50 | Vrbl 11 | 19.31 | Mostly Cloudy | SCT019TCU SCT040 BKN100 | 29.5 | 24.9 | 76% | 35 | 75.62 | 1008.1 | ||||||
| 02 | 12:50 | E 2 G 28 | 19.31 | Mostly Cloudy | SCT019TCU BKN040 BKN100 | 29 | 25 | 31.1 | 26.1 | 79% | 35 | 75.67 | 1009.0 | ||||
| 02 | 11:50 | Vrbl 11 | 19.31 | Partly Cloudy | FEW019 SCT040 | 30 | 25.7 | 78% | 37 | 75.72 | 1009.7 | ||||||
| 02 | 10:50 | Vrbl 9 | 19.31 | Partly Cloudy | FEW019 SCT040 | 31.1 | 25.8 | 73% | 39 | 75.77 | 1010.2 | ||||||
| 02 | 09:50 | Vrbl 11 | 19.31 | Partly Cloudy | SCT019 | 30.8 | 25.5 | 73% | 38 | 75.79 | 1010.5 | ||||||
| 02 | 08:50 | Vrbl 9 | 19.31 | A Few Clouds | FEW016TCU | 29.3 | 25.9 | 82% | 36 | 75.77 | 1010.2 | ||||||
| 02 | 07:50 | Vrbl 2 | 19.31 | Mostly Cloudy | SCT016TCU BKN040 | 27.4 | 25.7 | 90% | 32 | 75.77 | 1010.2 | ||||||
| 02 | 06:50 | Vrbl 4 | 19.31 | Partly Cloudy | SCT019 | 26.1 | 25 | 26.1 | 25.2 | 94% | 28 | 75.72 | 1009.5 | ||||
| 02 | 05:50 | Vrbl 2 | 17.70 | Partly Cloudy | FEW022 SCT040 | 25.7 | 24.7 | 94% | 27 | 75.67 | 1008.8 | ||||||
| 02 | 04:50 | Vrbl 4 | 16.09 | Partly Cloudy | FEW020 SCT040 SCT100 | 25.7 | 24.7 | 94% | 27 | 75.64 | 1008.5 | ||||||
| 02 | 03:50 | Vrbl 6 | 16.09 | Partly Cloudy | SCT022 SCT040 | 25.3 | 24 | 93% | 26 | 75.64 | 1008.6 | ||||||
| 02 | 02:50 | Vrbl 4 | 16.09 | Partly Cloudy | FEW022 SCT100 | 25.2 | 24 | 93% | 26 | 75.67 | 1008.8 | ||||||
| 02 | 01:50 | Vrbl 2 | 16.09 | Partly Cloudy | FEW021 SCT100 | 25.4 | 24.2 | 93% | 27 | 75.69 | 1009.1 | ||||||
| 02 | 00:50 | Vrbl 4 | 16.09 | A Few Clouds | FEW021 FEW100 | 25.6 | 24.3 | 26.9 | 25.6 | 93% | 27 | 75.74 | 1009.8 | ||||
| 01 | 23:50 | Vrbl 4 | 16.09 | A Few Clouds | FEW021 FEW100 | 25.7 | 24.3 | 92% | 27 | 75.77 | 1010.2 | ||||||
| 01 | 22:50 | Vrbl 2 | 16.09 | Mostly Cloudy | FEW021 SCT100 BKN200 | 26 | 24.5 | 91% | 28 | 75.77 | 1010.2 | ||||||
| 01 | 21:50 | Vrbl 2 | 16.09 | Mostly Cloudy | FEW021 SCT100 BKN200 | 26.1 | 24.4 | 90% | 28 | 75.77 | 1010.2 | ||||||
| 01 | 20:50 | Vrbl 2 | 16.09 | Partly Cloudy | FEW021TCU SCT100 SCT200 | 26.1 | 24.4 | 90% | 28 | 75.77 | 1010.2 | ||||||
| 01 | 19:51 | Vrbl 2 | 16.09 | Mostly Cloudy | FEW021TCU BKN100 BKN200 | 26.6 | 24.8 | 90% | 30 | 75.72 | 1009.7 | ||||||
| 01 | 18:52 | Vrbl 6 | 16.09 | Mostly Cloudy | FEW022 SCT100 BKN200 | 26.9 | 25.2 | 30.7 | 26.9 | 90% | 30 | 75.67 | 1008.8 | ||||
| 01 | 17:50 | Vrbl 4 | 19.31 | Mostly Cloudy | FEW022 SCT100 BKN200 | 28.4 | 25.3 | 83% | 34 | 75.64 | 1008.5 | ||||||
| 01 | 16:51 | Vrbl 4 | 19.31 | Mostly Cloudy | SCT020TCU SCT100 BKN200 | 28.4 | 24.9 | 81% | 33 | 75.62 | 1008.1 | ||||||
| 01 | 15:51 | Vrbl 9 | 19.31 | Light Showers Rain | FEW011 SCT019TCU BKN030 BKN100 OVC200 | 28.1 | 24.8 | 82% | 33 | 75.59 | 1008.0 | ||||||
| Date | Time (sst) | Wind (kph) | Vis. (km) | Weather | Sky Cond. | Air | Dwpt | Max. | Min. | Relative Humidity | Wind Chill (°C) | Heat Index (°C) | altimeter (cm) | sea level (mb) | 1 hr | 3 hr | 6 hr |
| 6 hour | |||||||||||||||||
| Temperature (ºC) | Pressure | Precipitation (cm) | |||||||||||||||